sat.trackr.live / text

‹ back to catalog

STARLINK-32524

NORAD 62159 · 2024-224W

PAYLOAD ACTIVE UNKNOWN

§ Identity

Operator
Country
US
Launch date
2024-11-30
Launch site
AFETR
Launch vehicle
Mass (kg)
RCS (m²)

Purposes: comms

External: N2YO · Heavens-Above · Gunter

§ Orbital elements

Epoch: 2026-09-20T22:59:06.479232Z

Period
94.27 min
Inclination
43.0002°
Eccentricity
0.0001004
Mean motion
15.27583831 rev/d
Perigee alt
482.3 km
Apogee alt
483.7 km
Semi-major
6,861.2 km
B*
4.8470e-4
RAAN
138.8002°
Arg perigee
271.0662°
Mean anomaly
89.0075°
Rev number
10,214

§ Raw data

STARLINK-325241 62159U 24224W   26263.95771388  .00013101  00000+0  48470-3 0  99952 62159  43.0002 138.8002 0001004 271.0662  89.0075 15.27583831102145

JSON: /api/v1/satellites/62159 · /tle

For live sub-satellite position, see the globe view (requires WebGL).

§ Visibility from observer

Set your observer location to see the next 7 days of passes ≥ 10°. The values pass through the URL so the page stays shareable.

No JS? Fill the form by hand. The geolocation button needs JavaScript.